KSBDKRAL

Guest
Details From KSBD - San Bernardino Intl
To KRAL - Riverside Muni
Flight Number -
Tags Routegen Generated
Created
Modified
Stats Distance 27 nm / 50 km
Max Altitude 100 ft / 30 m
Waypoints 5
Social Downloads 0
Likes 0
Share

Download

Looking for another format? Having issues loading an existing format? Contact us
Advertisement - Login to hide

Notes

Departing runway 7 KSBD. Arriving runway 10 KRAL.

Route

KSBD +34.12_-117.14 +34.02_-117.20 +33.92_-117.26 KRAL

ID Type Via Altitude (ft/m) Position (lat/lon) Dist (leg/tot) Name
O KSBD APT - 0 / 0 34.09995 / -117.21935 - / 0 nm
+34.12_-117.14 DME - 100 / 30 34.12435 / -117.13707 4 / 4 nm
+34.02_-117.20 DME - 100 / 30 34.02095 / -117.20092 6 / 11 nm
+33.92_-117.26 DME - 100 / 30 33.91756 / -117.26477 6 / 18 nm
O KRAL APT - 0 / 0 33.95054 / -117.43463 8 / 26 nm

Altitude Profile

Advertisement - Login to hide

KSBD

Details ICAO KSBD (SBD)
Name San Bernardino Intl
Region United States
Timezone America/Los_Angeles (UTC-7.0)
Stats Elevation 1,159 ft / 353 m (AMSL)
Location 34.095400° -117.235000°
Runways 1
Magnetic Variation 11.481° E

METAR

KSBD 141451Z 00000KT 10SM CLR 23/05 A2995

Decode

TAF

TAF KSBD 141129Z 1412/1512 VRB04KT P6SM FEW200 FM142100 26010KT P6SM FEW200 FM150400 VRB05KT P6SM FEW200

Decode

Departure Runways

ID Width Length Bearing (true/mag) Surface Threshold Overrun Markings Lighting
06 200 ft / 61 m 9,990 ft / 3,045 m 70.34° / 58.86° CONCRETE 0 ft / 0 m 0 ft / 0 m PREC-APP CENTERLINE EDGE THRESHOLD REIL-OMNI
24 200 ft / 61 m 9,990 ft / 3,045 m 250.35° / 238.87° CONCRETE 0 ft / 0 m 0 ft / 0 m APP CENTERLINE EDGE THRESHOLD REIL-OMNI

KRAL

Details ICAO KRAL (RAL)
Name Riverside Municipal
Region United States
Timezone America/Los_Angeles (UTC-7.0)
Stats Elevation 817 ft / 249 m (AMSL)
Location 33.951700° -117.446000°
Runways 2
Magnetic Variation 11.501° E

METAR

KRAL 141453Z VRB03KT 10SM CLR 22/08 A2994 RMK AO2 SLP121 T02170078 53011

Decode

TAF

Not found

Destination Runways

ID Width Length Bearing (true/mag) Surface Threshold Overrun Markings Lighting
09 98 ft / 30 m 5,405 ft / 1,648 m 103.11° / 91.61° CONCRETE 0 ft / 0 m 0 ft / 0 m PREC-APP EDGE THRESHOLD SALS
16 49 ft / 15 m 2,854 ft / 870 m 178.57° / 167.07° CONCRETE 0 ft / 0 m 0 ft / 0 m APP EDGE THRESHOLD
27 98 ft / 30 m 5,405 ft / 1,648 m 283.13° / 271.62° CONCRETE 0 ft / 0 m 0 ft / 0 m PREC-APP EDGE THRESHOLD SALS REIL-OMNI
34 49 ft / 15 m 2,854 ft / 870 m 358.57° / 347.07° CONCRETE 0 ft / 0 m 0 ft / 0 m APP EDGE THRESHOLD

Approach Navaids

Runway Type Ident Frequency Range Bearing (true/mag) Slope Elevation
09 GS IRAL 110.90 MHz 10 nm / 19 km 103.24° / 91.74 ° 3.00° 764 ft / 233 m (AMSL)
09 MM MM - - 103.12° / 91.62 ° - 818 ft / 249 m (AMSL)
09 LOC-ILS IRAL 110.90 MHz 18 nm / 33 km 103.12° / 91.62 ° - 828 ft / 252 m (AMSL)